Weather History for Gallup, NM

Change the Weather History Date:

Monday, November 19, 2012

  Actual Average Record
Temperature  
Mean Temperature 37 °F -  
Max Temperature 55 °F 51 °F 70 °F (2007)
Min Temperature 19 °F 18 °F -6 °F (1988)
Degree Days  
Heating Degree Days 28    
Moisture  
Dew Point 20 °F    
Average Humidity 59    
Maximum Humidity 92    
Minimum Humidity 22    
Precipitation  
Precipitation 0.00 in - - ()
Sea Level Pressure  
Sea Level Pressure 30.34 in    
Wind  
Wind Speed 2 mph (SSE)    
Max Wind Speed 12 mph    
Max Gust Speed -    
Visibility 10 miles    
Events      
Averages and records for this station are not official NWS values.
T = Trace of Precipitation, MM = Missing Value Source: NWS Daily Summary

Daily Weather History Graph

Daily Weather History Graph

Search for Another Location

Airport:

Trip Planner

Search our weather history database for the weather conditions in past years. The results will help you decide how hot, cold, wet, or windy it might be!

Date:

Astronomy

Nov. 19, 2012 Rise Set
Actual Time 6:55 AM MST 5:05 PM MST
Civil Twilight 6:27 AM MST 5:33 PM MST
Nautical Twilight 5:56 AM MST 6:04 PM MST
Astronomical Twilight 5:26 AM MST 6:34 PM MST
Moon 12:04 PM MST (11/19) 11:30 PM MST (11/19)
Length of Visible Light 11h 05m
Length of Day
10h 10m
Waxing Crescent, 41% of the Moon is Illuminated
Nov 19
Waxing Crescent
Nov 20
First Quarter
Nov 28
Full
Dec 6
Last Quarter
Dec 13
New

Hourly Weather History & Observations

Time (MST) Temp. Windchill Dew Point Humidity Pressure Visibility Wind Dir Wind Speed Gust Speed Precip Events Conditions
12:53 AM 27.0 °F - 23.0 °F 85% 30.21 in 10.0 mi Calm Calm - N/A   Clear
1:53 AM 28.0 °F 24.2 °F 23.0 °F 81% 30.22 in 10.0 mi ENE 3.5 mph - N/A   Clear
2:53 AM 27.0 °F - 23.0 °F 85% 30.22 in 10.0 mi Calm Calm - N/A   Clear
3:53 AM 24.1 °F 18.2 °F 21.0 °F 88% 30.25 in 10.0 mi ENE 4.6 mph - N/A   Clear
4:53 AM 23.0 °F - 19.9 °F 88% 30.30 in 10.0 mi Calm Calm - N/A   Clear
5:53 AM 19.9 °F - 18.0 °F 92% 30.36 in 10.0 mi Calm Calm - N/A   Clear
6:53 AM 19.9 °F - 18.0 °F 92% 30.46 in 10.0 mi Calm Calm - N/A   Clear
7:53 AM 25.0 °F - 21.0 °F 85% 30.48 in 10.0 mi Calm Calm - N/A   Clear
8:53 AM 34.0 °F - 26.1 °F 73% 30.42 in 10.0 mi Calm Calm - N/A   Clear
9:53 AM 39.9 °F - 28.9 °F 65% 30.37 in 10.0 mi Calm Calm - N/A   Clear
10:53 AM 48.0 °F - 30.9 °F 52% 30.34 in 10.0 mi West 5.8 mph - N/A   Clear
11:53 AM 52.0 °F - 27.0 °F 38% 30.32 in 9.0 mi WSW 10.4 mph - N/A   Clear
12:53 PM 55.9 °F - 24.1 °F 29% 30.25 in 10.0 mi SW 11.5 mph - N/A   Clear
1:53 PM 55.0 °F - 18.0 °F 23% 30.23 in 10.0 mi WSW 4.6 mph - N/A   Clear
2:53 PM 55.9 °F - 18.0 °F 23% 30.22 in 10.0 mi Calm Calm - N/A   Clear
3:53 PM 55.9 °F - 17.1 °F 22% 30.26 in 10.0 mi SSW 4.6 mph - N/A   Clear
4:53 PM 51.1 °F - 17.1 °F 26% 30.31 in 10.0 mi South 4.6 mph - N/A   Clear
5:53 PM 44.1 °F - 17.1 °F 34% 30.40 in 10.0 mi Calm Calm - N/A   Clear
6:53 PM 37.9 °F - 15.1 °F 39% 30.45 in 10.0 mi Calm Calm - N/A   Clear
7:53 PM 34.0 °F 31.0 °F 16.0 °F 48% 30.46 in 10.0 mi ENE 3.5 mph - N/A   Clear
8:53 PM 26.1 °F - 12.9 °F 58% 30.46 in 10.0 mi Calm Calm - N/A   Clear
9:53 PM 25.0 °F 20.7 °F 12.9 °F 60% 30.43 in 10.0 mi ENE 3.5 mph - N/A   Clear
10:53 PM 28.9 °F - 15.1 °F 56% 30.34 in 10.0 mi Calm Calm - N/A   Clear
11:53 PM 21.0 °F 14.6 °F 12.0 °F 68% 30.38 in 10.0 mi ENE 4.6 mph - N/A   Clear